VKG121 LEPA-EKCH

Flight info

Callsign VKG121
Flight time N/A
Altitude 36000
Route MEROS DCT LAPIT DCT CHELY DCT LUMAS DCT MAXIR DCT LUSOL DCT BODRU DCT OKTET DCT IRMAR DCT KINES DCT VANAS DCT MOBLO DCT UBIMA DCT SOSAL DCT KORED DCT BERSU DCT DITON/N0443F350 DCT LOKTA DCT TEDGO DCT HAREM DCT LOHRE DCT BERXO DCT MAKEL N851 GESKA Z711 MONAK
Aircraft A321/M-SDE3FGHIRWY/LB1

Departure

Time 2026-05-04 17:42
Airport Palma de Mallorca Airport (LEPA)

Arrival

Time N/A
Airport Copenhagen Kastrup Airport (EKCH)
Time Latitude Longitude Altitude Speed Heading
2026-05-04 17:08 39.54904 2.73807 39 ft 0 kts 249°
2026-05-04 17:26 39.54914 2.73879 38 ft 4 kts 276°
2026-05-04 17:27 39.54896 2.73944 35 ft 4 kts 307°
2026-05-04 17:27 39.54857 2.73991 38 ft 4 kts 329°
2026-05-04 17:28 39.54845 2.73999 36 ft 0 kts 329°
2026-05-04 17:30 39.54934 2.73972 38 ft 8 kts 50°
2026-05-04 17:31 39.55010 2.73979 38 ft 8 kts 328°
2026-05-04 17:31 39.55352 2.73709 38 ft 22 kts 328°
2026-05-04 17:32 39.55597 2.73516 38 ft 20 kts 328°
2026-05-04 17:33 39.55813 2.73826 37 ft 20 kts 58°
2026-05-04 17:33 39.55888 2.73992 38 ft 23 kts 59°
2026-05-04 17:34 39.56115 2.74445 38 ft 16 kts 32°
2026-05-04 17:34 39.56136 2.74453 38 ft 0 kts
2026-05-04 17:40 39.56137 2.74453 38 ft 2 kts
2026-05-04 17:40 39.56194 2.74428 38 ft 15 kts 329°
2026-05-04 17:41 39.56251 2.74330 38 ft 13 kts 269°
2026-05-04 17:41 39.56208 2.74225 37 ft 16 kts 238°
2026-05-04 17:41 39.56062 2.73918 38 ft 73 kts 238°
2026-05-04 17:41 39.55692 2.73139 39 ft 127 kts 238°
2026-05-04 17:42 39.55154 2.72008 65 ft 164 kts 237°
2026-05-04 17:42 39.54537 2.70760 764 ft 152 kts 236°
2026-05-04 17:42 39.54020 2.69686 1717 ft 135 kts 236°
2026-05-04 17:42 39.53515 2.68609 2071 ft 148 kts 237°
2026-05-04 17:43 39.52946 2.67391 2235 ft 168 kts 238°
2026-05-04 17:43 39.52311 2.66037 2376 ft 184 kts 238°
2026-05-04 17:43 39.51617 2.64558 2531 ft 199 kts 238°
2026-05-04 17:43 39.50879 2.62997 2901 ft 205 kts 238°
2026-05-04 17:44 39.50116 2.61449 3540 ft 204 kts 232°
2026-05-04 17:44 39.48983 2.60248 3821 ft 223 kts 210°
2026-05-04 17:44 39.47542 2.59288 4068 ft 243 kts 209°
2026-05-04 17:44 39.46008 2.58288 4731 ft 249 kts 209°
2026-05-04 17:45 39.44450 2.57281 5480 ft 252 kts 208°
2026-05-04 17:45 39.42740 2.56713 6188 ft 263 kts 181°
2026-05-04 17:45 39.40980 2.57503 6862 ft 280 kts 149°
2026-05-04 17:45 39.39533 2.59197 7534 ft 287 kts 142°
2026-05-04 17:46 39.38039 2.60908 8233 ft 289 kts 144°
2026-05-04 17:46 39.36532 2.62701 8956 ft 293 kts 141°
2026-05-04 17:46 39.35094 2.64535 9639 ft 295 kts 142°
2026-05-04 17:46 39.33579 2.66350 10225 ft 302 kts 143°
2026-05-04 17:47 39.31968 2.68236 10363 ft 324 kts 143°
2026-05-04 17:47 39.30245 2.70257 10496 ft 345 kts 143°
2026-05-04 17:47 39.28466 2.72424 10896 ft 357 kts 137°
2026-05-04 17:47 39.27151 2.75200 11436 ft 374 kts 111°
2026-05-04 17:48 39.26784 2.78564 12011 ft 384 kts 93°
2026-05-04 17:48 39.26751 2.82028 12645 ft 387 kts 92°
2026-05-04 17:48 39.26750 2.84382 13070 ft 390 kts 92°
2026-05-04 17:48 39.27162 2.89012 13865 ft 397 kts 77°
2026-05-04 17:49 39.28064 2.92390 14401 ft 401 kts 65°
2026-05-04 17:49 39.29393 2.95572 14927 ft 405 kts 59°
2026-05-04 17:49 39.30809 2.98736 15440 ft 409 kts 59°
2026-05-04 17:49 39.32238 3.01936 15966 ft 413 kts 59°
2026-05-04 17:50 39.33676 3.05165 16482 ft 417 kts 59°
2026-05-04 17:50 39.35319 3.08259 16986 ft 419 kts 45°
2026-05-04 17:50 39.37472 3.10795 17474 ft 420 kts 37°
2026-05-04 17:50 39.39708 3.13243 17990 ft 424 kts 37°
2026-05-04 17:51 39.41968 3.15708 18465 ft 427 kts 37°
2026-05-04 17:51 39.44253 3.18199 18898 ft 431 kts 37°
2026-05-04 17:51 39.46553 3.20710 19300 ft 435 kts 37°
2026-05-04 17:51 39.48871 3.23251 19704 ft 439 kts 37°
2026-05-04 17:52 39.51205 3.25817 20105 ft 442 kts 37°
2026-05-04 17:52 39.53562 3.28413 20478 ft 447 kts 37°
2026-05-04 17:52 39.55938 3.31033 20880 ft 450 kts 37°
2026-05-04 17:52 39.58336 3.33678 21263 ft 454 kts 38°
2026-05-04 17:53 39.60753 3.36344 21662 ft 458 kts 38°
2026-05-04 17:53 39.63153 3.38997 22038 ft 462 kts 38°
2026-05-04 17:53 39.65608 3.41717 22416 ft 466 kts 38°
2026-05-04 17:53 39.68089 3.44465 22799 ft 470 kts 38°
2026-05-04 17:54 39.70584 3.47226 23163 ft 474 kts 38°
2026-05-04 17:54 39.73102 3.50012 23525 ft 477 kts 38°
2026-05-04 17:54 39.75641 3.52822 23829 ft 481 kts 38°
2026-05-04 17:54 39.78190 3.55653 24168 ft 483 kts 38°
2026-05-04 17:55 39.80746 3.58498 24505 ft 485 kts 38°
2026-05-04 17:55 39.83313 3.61361 24845 ft 487 kts 38°
2026-05-04 17:55 39.85891 3.64239 25183 ft 489 kts 38°
2026-05-04 17:55 39.88480 3.67132 25500 ft 492 kts 38°
2026-05-04 17:56 39.91080 3.70037 25821 ft 494 kts 38°
2026-05-04 17:56 39.93697 3.72961 26149 ft 496 kts 38°
2026-05-04 17:56 39.96319 3.75895 26468 ft 498 kts 38°
2026-05-04 17:56 39.98953 3.78845 26792 ft 500 kts 38°
2026-05-04 17:57 40.01596 3.81803 27096 ft 502 kts 39°
2026-05-04 17:57 40.04254 3.84785 27404 ft 505 kts 39°
2026-05-04 17:57 40.06922 3.87778 27714 ft 507 kts 39°
2026-05-04 17:57 40.09596 3.90786 28002 ft 509 kts 39°
2026-05-04 17:58 40.12285 3.93815 28281 ft 511 kts 39°
2026-05-04 17:58 40.14980 3.96855 28555 ft 513 kts 39°
2026-05-04 17:58 40.17683 3.99909 28821 ft 515 kts 39°
2026-05-04 17:58 40.20401 4.02985 29085 ft 517 kts 39°
2026-05-04 17:59 40.23128 4.06072 29354 ft 519 kts 39°
2026-05-04 17:59 40.25866 4.09174 29613 ft 521 kts 39°
2026-05-04 17:59 40.31335 4.15371 30142 ft 525 kts 39°
2026-05-04 18:00 40.34086 4.18497 30453 ft 524 kts 39°
2026-05-04 18:00 40.36841 4.21633 30768 ft 524 kts 39°
2026-05-04 18:00 40.39588 4.24760 31088 ft 523 kts 39°
2026-05-04 18:00 40.42336 4.27891 31413 ft 523 kts 39°
2026-05-04 18:01 40.45085 4.31007 31738 ft 522 kts 37°
2026-05-04 18:01 40.48025 4.33770 32048 ft 518 kts 28°
2026-05-04 18:01 40.50108 4.35287 32257 ft 515 kts 22°
2026-05-04 18:02 40.56796 4.38268 32886 ft 503 kts
2026-05-04 18:02 40.60236 4.39090 33194 ft 502 kts
2026-05-04 18:02 40.63662 4.39910 33516 ft 501 kts
2026-05-04 18:02 40.67090 4.40737 33837 ft 500 kts
2026-05-04 18:03 40.70508 4.41560 34134 ft 500 kts
2026-05-04 18:03 40.73925 4.42382 34426 ft 498 kts
2026-05-04 18:03 40.77334 4.43200 34706 ft 497 kts
2026-05-04 18:03 40.80733 4.44014 34993 ft 496 kts
2026-05-04 18:04 40.84122 4.44826 35267 ft 495 kts
2026-05-04 18:04 40.87510 4.45643 35540 ft 493 kts
2026-05-04 18:04 40.94248 4.47277 35924 ft 492 kts
2026-05-04 18:05 40.97608 4.48096 35951 ft 490 kts
2026-05-04 18:05 41.04307 4.49727 35942 ft 489 kts
2026-05-04 18:06 41.14337 4.52162 35938 ft 488 kts
2026-05-04 18:06 41.21019 4.53786 35940 ft 488 kts
2026-05-04 18:07 41.27698 4.55411 35945 ft 488 kts
2026-05-04 18:07 41.34378 4.57048 35952 ft 488 kts
2026-05-04 18:08 41.41011 4.58690 35954 ft 488 kts
2026-05-04 18:08 41.47688 4.60331 35959 ft 488 kts
2026-05-04 18:09 41.61030 4.63614 35963 ft 487 kts
2026-05-04 18:10 41.67697 4.65271 35960 ft 487 kts
2026-05-04 18:10 41.74252 4.67710 35958 ft 495 kts 20°
2026-05-04 18:11 41.80287 4.72250 35961 ft 498 kts 28°
2026-05-04 18:11 41.86228 4.77035 35956 ft 498 kts 28°
2026-05-04 18:12 41.92179 4.81822 35952 ft 499 kts 28°
2026-05-04 18:12 41.98129 4.86616 35956 ft 499 kts 28°
2026-05-04 18:13 42.04079 4.91428 35964 ft 499 kts 28°
2026-05-04 18:14 42.12959 4.98645 35969 ft 499 kts 28°
2026-05-04 18:14 42.18904 5.03480 35969 ft 500 kts 28°
2026-05-04 18:15 42.30812 5.13190 35979 ft 500 kts 28°
2026-05-04 18:16 42.36764 5.18074 35986 ft 500 kts 28°
2026-05-04 18:16 42.42715 5.22963 35992 ft 500 kts 28°
2026-05-04 18:17 42.51639 5.30312 35997 ft 500 kts 28°
2026-05-04 18:18 42.60566 5.37670 35993 ft 500 kts 28°
2026-05-04 18:18 42.66510 5.42591 36001 ft 500 kts 28°
2026-05-04 18:19 42.75410 5.50003 36008 ft 500 kts 28°
2026-05-04 18:19 42.81338 5.54946 36010 ft 500 kts 28°
2026-05-04 18:20 42.87232 5.59859 36017 ft 499 kts 28°
2026-05-04 18:20 42.93154 5.64813 36026 ft 499 kts 28°
2026-05-04 18:21 42.99067 5.69777 36027 ft 499 kts 28°
2026-05-04 18:21 43.04969 5.74739 36035 ft 498 kts 28°
2026-05-04 18:22 43.10868 5.79716 36033 ft 498 kts 29°
2026-05-04 18:22 43.16761 5.84696 36039 ft 498 kts 28°
2026-05-04 18:23 43.22654 5.89678 36041 ft 498 kts 29°
2026-05-04 18:23 43.28540 5.94670 36038 ft 497 kts 29°
2026-05-04 18:24 43.34414 5.99670 36043 ft 497 kts 28°
2026-05-04 18:24 43.40651 6.03487 36042 ft 486 kts 10°
2026-05-04 18:25 43.47241 6.04823 36045 ft 476 kts 358°
2026-05-04 18:25 43.53842 6.05478 36047 ft 476 kts 359°
2026-05-04 18:26 43.60449 6.06146 36045 ft 475 kts 359°
2026-05-04 18:26 43.67043 6.06821 36052 ft 475 kts 359°
2026-05-04 18:27 43.73592 6.07516 36057 ft 477 kts
2026-05-04 18:27 43.80057 6.09870 36053 ft 487 kts 20°
2026-05-04 18:28 43.86160 6.13984 36059 ft 488 kts 23°
2026-05-04 18:28 43.92252 6.18131 36064 ft 488 kts 23°
2026-05-04 18:29 43.98342 6.22289 36068 ft 487 kts 23°
2026-05-04 18:29 44.04416 6.26459 36069 ft 486 kts 23°
2026-05-04 18:30 44.13511 6.32702 36065 ft 485 kts 23°
2026-05-04 18:31 44.19564 6.36874 36070 ft 485 kts 23°
2026-05-04 18:31 44.25610 6.41057 36080 ft 485 kts 23°
2026-05-04 18:32 44.31646 6.45235 36091 ft 485 kts 23°
2026-05-04 18:32 44.37681 6.49416 36099 ft 484 kts 23°
2026-05-04 18:33 44.43678 6.53574 36112 ft 485 kts 23°
2026-05-04 18:33 44.49706 6.57783 36119 ft 484 kts 24°
2026-05-04 18:34 44.55733 6.61994 36130 ft 484 kts 24°
2026-05-04 18:34 44.61762 6.66217 36137 ft 484 kts 24°
2026-05-04 18:35 44.67781 6.70440 36145 ft 484 kts 24°
2026-05-04 18:35 44.73797 6.74676 36153 ft 483 kts 24°
2026-05-04 18:36 44.80038 6.77951 36159 ft 476 kts
2026-05-04 18:36 44.86540 6.78615 36158 ft 465 kts 352°
2026-05-04 18:37 44.92998 6.78186 36151 ft 465 kts 352°
2026-05-04 18:37 44.99467 6.77755 36152 ft 465 kts 353°
2026-05-04 18:38 45.05938 6.77335 36153 ft 466 kts 353°
2026-05-04 18:38 45.12412 6.76921 36149 ft 466 kts 353°
2026-05-04 18:39 45.18884 6.76495 36142 ft 465 kts 353°
2026-05-04 18:39 45.25305 6.76063 36130 ft 465 kts 352°
2026-05-04 18:40 45.31764 6.75617 36114 ft 465 kts 352°
2026-05-04 18:40 45.38218 6.75184 36106 ft 465 kts 353°
2026-05-04 18:41 45.44687 6.74760 36102 ft 465 kts 353°
2026-05-04 18:41 45.51154 6.74326 36093 ft 465 kts 353°
2026-05-04 18:42 45.57617 6.73880 36084 ft 465 kts 352°
2026-05-04 18:42 45.64080 6.73428 36082 ft 465 kts 352°
2026-05-04 18:43 45.70538 6.72982 36066 ft 465 kts 352°
2026-05-04 18:43 45.77009 6.72538 36064 ft 466 kts 352°
2026-05-04 18:44 45.83489 6.72094 36058 ft 465 kts 352°
2026-05-04 18:44 45.89964 6.71652 36055 ft 466 kts 352°
2026-05-04 18:45 45.96438 6.71219 36049 ft 466 kts 352°
2026-05-04 18:45 46.02873 6.70783 36048 ft 466 kts 352°
2026-05-04 18:46 46.09358 6.70346 36044 ft 467 kts 354°
2026-05-04 18:46 46.15848 6.71442 36032 ft 476 kts 12°
2026-05-04 18:47 46.22212 6.74138 36029 ft 477 kts 13°
2026-05-04 18:47 46.28586 6.76849 36031 ft 477 kts 13°
2026-05-04 18:48 46.34953 6.79552 36033 ft 477 kts 13°
2026-05-04 18:48 46.41316 6.82258 36030 ft 477 kts 13°
2026-05-04 18:49 46.47681 6.84975 36036 ft 477 kts 13°
2026-05-04 18:49 46.53870 6.88453 36036 ft 480 kts 28°
2026-05-04 18:50 46.59100 6.94470 36034 ft 482 kts 47°
2026-05-04 18:50 46.63321 7.01956 36034 ft 482 kts 51°
2026-05-04 18:51 46.67536 7.09548 36034 ft 482 kts 51°
2026-05-04 18:51 46.71768 7.17193 36038 ft 482 kts 51°
2026-05-04 18:52 46.75966 7.24813 36037 ft 482 kts 51°
2026-05-04 18:52 46.80121 7.32390 36039 ft 481 kts 51°
2026-05-04 18:53 46.84295 7.40019 36045 ft 481 kts 51°
2026-05-04 18:53 46.88464 7.47654 36045 ft 480 kts 51°
2026-05-04 18:54 46.91952 7.54054 36042 ft 480 kts 51°
2026-05-04 18:54 46.96077 7.61659 36043 ft 480 kts 52°
2026-05-04 18:55 47.00211 7.69310 36035 ft 479 kts 52°
2026-05-04 18:55 47.06400 7.80791 36024 ft 478 kts 52°
2026-05-04 18:56 47.10516 7.88455 36031 ft 478 kts 52°
2026-05-04 18:56 47.14490 7.96273 36029 ft 477 kts 58°
2026-05-04 18:57 47.18006 8.04519 36040 ft 477 kts 58°
2026-05-04 18:57 47.21520 8.12778 36045 ft 476 kts 58°
2026-05-04 18:58 47.24459 8.19705 36039 ft 476 kts 58°